Location: GMARS
(34.2910°N, 116.3838°W)
Time: 05:52:26
(UTC-07:00)

Daily predictions for brighter satellites

Satellite Brightness Start Highest point End
(mag) Time Altitude Azimuth Time Altitude Azimuth Time Altitude Azimuth
CZ-2C R/B 3.6 00:08:12 10° NNE 00:12:02 46° N 00:12:02 46° N
SeaSat 1 3.9 00:19:51 35° N 00:19:51 35° N 00:22:43 10° NNW
USA 267 4.2 00:16:44 10° NNE 00:22:48 43° NW 00:25:23 30° W
NOSS 3-1 (C) 4.0 00:26:45 10° NNW 00:34:33 76° ENE 00:34:45 76° ENE
SL-16 R/B 3.2 00:31:46 10° NNW 00:35:24 41° NNW 00:35:24 41° NNW
Lacrosse 5 3.6 00:40:43 30° N 00:40:43 30° N 00:43:30 10° NNE
USA 234 4.2 00:52:05 31° E 00:54:28 42° NE 01:00:32 10° NNW
Lacrosse 5 rocket 3.9 00:59:47 10° NNW 01:01:39 22° NNW 01:01:39 22° NNW
NOSS 3-1 (A) 4.0 00:59:02 10° NNW 01:06:48 88° NNW 01:06:48 88° NNW
Cosmos 2219 4.4 01:13:01 35° NE 01:13:01 35° NE 01:16:28 10° NNE
COSMOS 2428 4.0 01:11:19 10° N 01:16:27 33° ENE 01:16:27 33° ENE
Cosmos 2360 Rocket 3.1 01:13:46 10° NNW 01:17:34 44° NNW 01:17:34 44° NNW
Cosmos 2322 Rocket 4.2 01:25:31 10° NW 01:27:23 18° WNW 01:27:23 18° WNW
Cosmos 1725 Rocket 4.3 01:38:15 10° N 01:44:08 63° ENE 01:44:08 63° ENE
Cosmos 2333 Rocket 3.8 01:44:15 10° N 01:49:09 29° ENE 01:50:57 24° E
Cosmos 2297 Rocket 3.6 01:56:55 29° E 01:56:55 29° E 02:01:08 10° NE
Cosmos 2219 Rocket 2.9 01:58:25 10° N 02:03:54 47° ENE 02:04:22 46° E
Cosmos 2237 Rocket 3.5 02:15:35 10° N 02:20:45 36° ENE 02:23:27 23° ESE
NPP 3.8 02:19:51 10° NNE 02:24:51 70° ENE 02:24:51 70° ENE
Lacrosse 4 Rocket 4.1 02:28:51 12° E 02:28:51 12° E 02:29:54 10° E
SL-16 R/B 3.8 02:26:03 18° SE 02:29:55 37° ENE 02:35:30 10° N
Cosmos 2227 Rocket 2.1 02:33:48 84° NE 02:33:48 84° NE 02:39:17 10° NNE
USA 234 3.9 02:39:22 38° W 02:39:22 38° W 02:43:39 10° NW
Aureole 2 Rocket 4.0 02:37:04 10° N 02:40:29 41° NE 02:40:29 41° NE
Cosmos 1140 Rocket 3.6 02:41:38 67° NNW 02:41:38 67° NNW 02:46:23 10° NNE
Cosmos 614 Rocket 4.0 02:42:51 79° N 02:42:51 79° N 02:47:46 10° NNE
SL-08 R/B 3.4 02:45:31 78° NNE 02:45:31 78° NNE 02:50:12 10° N
Cosmos 2151 3.9 02:47:03 43° N 02:47:03 43° N 02:49:57 10° N
Cosmos 1850 Rocket 4.0 02:47:49 74° ESE 02:47:49 74° ESE 02:53:00 10° NNE
Meteor 2-10 4.1 02:43:57 10° NNW 02:48:27 63° NW 02:48:27 63° NW
Cosmos 1741 Rocket 3.9 02:53:15 79° SE 02:53:28 81° ESE 02:58:49 10° NNE
Resurs 1-4 Rocket 2.4 02:48:18 10° NNE 02:53:32 57° E 02:54:22 51° SE
ADEOS 4.0 02:51:21 10° NNE 02:56:28 55° E 02:57:25 48° SE
ADEOS Rocket 3.6 02:49:05 10° NNE 02:56:40 80° ESE 02:59:39 43° S
AQUA 4.0 02:52:45 10° N 02:57:04 60° NW 02:57:04 60° NW
Cosmos 1900 4.2 02:58:02 82° NNW 02:58:02 82° NNW 03:02:55 10° NNE
ATLAS 2AS CENTAUR R/B 2.8 02:50:07 10° NW 02:58:00 72° WSW 03:01:00 39° S
COSMOS 2428 4.2 02:55:44 10° NW 02:58:26 23° WNW 02:58:26 23° WNW
Cosmos 1151 Rocket 3.8 02:56:47 10° NNW 02:59:54 43° NW 02:59:54 43° NW
Cosmos 1455 3.1 02:58:34 10° N 03:02:18 44° E 03:02:21 44° E
Cosmos 2082 3.7 03:03:00 58° W 03:03:29 60° WNW 03:09:02 10° NNE
Meteor 1-11 4.5 03:07:22 50° W 03:07:43 50° WNW 03:13:17 10° N
CZ-2D R/B 2.0 03:03:13 10° NNE 03:08:27 79° ESE 03:09:26 59° S
Cosmos 1570 Rocket 4.4 03:06:28 10° N 03:11:47 63° ENE 03:15:08 22° SSE
Meteor 1-27 4.2 03:06:52 10° NNW 03:12:37 66° W 03:13:36 56° SW
Tsikada Rocket 4.4 03:10:21 29° SSE 03:13:33 60° E 03:19:50 10° NNE
ARIANE 5 R/B 2.4 03:13:06 10° NNE 03:18:12 88° WNW 03:19:11 59° SSW
Cosmos 1703 4.4 03:20:33 33° NW 03:20:33 33° NW 03:23:18 10° N
GPS 2-04 Rocket1 2.7 03:20:18 81° E 03:20:18 81° E 03:24:20 10° E
Cosmos 1707 Rocket 4.2 03:16:33 10° N 03:20:50 53° E 03:22:41 31° SE
Cosmos 1626 3.5 03:24:32 28° NW 03:24:32 28° NW 03:26:53 10° NNW
Cosmos 1072 Rocket 4.5 03:21:48 10° NNW 03:27:49 62° W 03:29:52 41° SSW
MOS 1 Rocket 4.1 03:26:09 10° NNE 03:31:15 55° E 03:34:17 25° SSE
Cosmos 1666 Rocket 3.5 03:30:27 55° S 03:31:23 86° E 03:35:50 10° N
Cosmos 1513 Rocket 4.5 03:26:51 10° N 03:33:15 74° W 03:36:35 30° S
Cosmos 2333 Rocket 3.0 03:28:19 10° NW 03:32:53 33° W 03:32:53 33° W
Cosmos 1891 Rocket 4.4 03:28:48 10° N 03:35:08 73° W 03:38:25 30° S
CZ-3B DEB 4.4 03:28:00 30° SW 03:36:48 87° NW 03:51:24 10° NE
Cosmos 2297 Rocket 3.2 03:38:44 27° W 03:40:12 31° WNW 03:45:11 10° N
USA 161 3.7 03:41:53 16° ENE 03:41:56 16° ENE 03:43:15 10° NNE
UNKNOWN OBJECT B 2.7 03:39:02 10° NNE 03:43:03 89° W 03:44:01 51° SSW
Cosmos 1980 4.3 03:40:27 10° NW 03:45:33 35° WSW 03:46:07 34° WSW
Cosmos 2219 Rocket 3.8 03:43:28 10° NW 03:46:02 18° W 03:46:02 18° W
Cosmos 1805 Rocket 4.2 03:47:45 36° W 03:48:14 37° W 03:52:22 10° NNW
Cosmos 1464 Rocket 4.3 03:43:03 10° NNW 03:48:49 44° W 03:51:06 31° SW
ISS -3.3 03:47:31 10° NW 03:50:45 60° NE 03:53:58 10° ESE
ATLAS 3B CENTAUR R/B 3.2 03:37:05 10° W 03:51:15 54° SSW 03:56:27 10° ESE
BREEZE-M DEB 4.4 03:50:23 19° WNW 03:52:06 23° NW 03:54:19 10° NNE
Cosmos 1241 Rocket 4.4 03:51:06 10° NNW 03:57:28 69° WSW 04:03:40 10° SSE
DELTA 2 R/B (1) 4.0 03:55:02 20° W 03:58:52 58° NNW 04:04:20 10° ENE
Cosmos 2208 Rocket 4.2 03:54:09 10° NNW 03:59:09 49° WSW 04:02:13 22° SSW
USA 102 3.4 03:55:47 10° NNE 03:59:04 57° NW 03:59:04 57° NW
Cosmos 2237 Rocket 3.1 04:00:02 10° NW 04:04:33 25° WSW 04:05:10 25° WSW
SL-16 R/B 2.1 03:59:26 10° NNW 04:05:05 68° WSW 04:10:40 10° S
Okean O Rocket 3.2 04:01:11 10° NE 04:05:05 32° E 04:08:58 10° SSE
Lacrosse 4 Rocket 1.9 04:05:12 31° WSW 04:06:36 43° WNW 04:10:36 10° N
Cosmos 2227 4.2 04:03:29 23° SSW 04:07:16 89° WNW 04:13:03 10° NNE
Cosmos 468 Rocket 4.0 04:02:05 10° NNW 04:07:17 85° ENE 04:12:25 10° SSE
GP-B 4.5 04:03:31 10° NNE 04:07:39 38° E 04:11:47 10° SSE
Cosmos 1634 Rocket 4.3 04:02:28 10° N 04:08:38 69° E 04:14:45 10° SSE
Cosmos 1933 4.2 04:05:44 10° N 04:09:44 52° E 04:13:43 10° SSE
ATLAS 5 CENTAUR R/B 3.1 04:07:16 12° S 04:10:58 33° ESE 04:15:19 10° NE
SL-16 R/B 3.3 04:11:08 23° SW 04:13:31 29° W 04:18:47 10° NW
BREEZE-M DEB (TANK) 4.5 04:02:44 10° NW 04:15:27 39° WSW 04:19:33 10° S
Cosmos 1470 Rocket 3.4 04:12:59 20° SSW 04:15:52 74° W 04:20:10 10° N
Cosmos 1633 Rocket 3.9 04:15:39 25° WSW 04:17:15 32° W 04:21:11 10° NNW
OAO 3 Copernicus 4.4 04:13:45 14° W 04:18:02 57° SSW 04:22:59 10° ESE
Cosmos 2227 Rocket 4.3 04:16:21 10° WNW 04:18:23 12° NW 04:20:25 10° NNW
MOZ.5/SAFIR/RUBIN 5/SL-8 4.0 04:15:33 15° S 04:19:20 49° W 04:23:58 10° NNW
Sich 1 4.3 04:18:35 21° WSW 04:19:58 25° WNW 04:23:36 10° NNW
CZ-2D R/B 4.4 04:21:32 10° N 04:25:07 31° WNW 04:27:08 20° WSW
Cosmos 1400 Rocket 2.7 04:23:59 12° S 04:27:32 85° E 04:31:29 10° N
Cosmos 1814 Rocket 4.0 04:24:17 10° NNW 04:29:38 84° WSW 04:34:58 10° SSE
Cosmos 1763 Rocket 3.7 04:25:59 10° NNW 04:31:13 75° ENE 04:36:20 10° SSE
Cosmos 1892 3.3 04:28:18 10° S 04:32:00 57° E 04:35:45 10° NNE
Resurs 1-4 Rocket 3.9 04:29:47 10° NNW 04:32:50 16° WNW 04:35:28 11° W
Cosmos 2263 Rocket 2.8 04:35:04 10° S 04:40:29 56° ESE 04:45:54 10° NNE
CZ-3 R/B 3.6 04:00:19 10° W 04:41:34 68° SSW 04:50:14 10° ESE
PAYLOAD B 4.3 04:36:53 10° NNE 04:42:23 81° ESE 04:47:52 10° SSW
ADEOS II 2.1 04:38:00 10° N 04:43:17 83° WNW 04:48:32 10° SSW
Cosmos 1354 Rocket 4.0 04:42:23 10° SSW 04:47:41 86° WNW 04:52:59 10° NNE
CZ-2D R/B 4.1 04:46:34 10° NW 04:47:48 11° WNW 04:49:03 10° WNW
CZ-4B R/B 3.0 04:44:22 10° N 04:48:44 68° WNW 04:52:52 10° SSW
NOSS 3-4 (A) 3.9 04:42:23 10° NW 04:49:28 63° WSW 04:56:57 10° SSE
NOSS 3-4 (C) 3.9 04:42:29 10° NW 04:49:34 63° WSW 04:57:04 10° SSE
In-Cosmos 22 Rocket 4.3 04:45:12 10° SSW 04:50:22 50° W 04:55:31 10° N
PSLV R/B 3.5 04:46:10 10° N 04:50:23 84° WNW 04:54:34 10° SSW
OAO 3 Rocket 3.5 04:46:45 13° WSW 04:51:07 57° SSE 04:55:55 10° E
Cosmos 371 Rocket 3.3 04:46:26 10° NNW 04:51:11 63° WSW 04:55:54 10° S
Meteor 1-26 Rocket 4.2 04:46:50 10° N 04:52:35 86° W 04:58:11 10° S
Landsat 4 3.9 04:49:12 10° S 04:52:52 50° W 04:56:36 10° NNW
IRS-1C Rocket 4.1 04:50:22 10° NNE 04:55:39 83° WNW 05:00:56 10° SSW
USA 215 3.7 04:49:30 10° NE 04:55:57 60° SE 05:02:22 10° SSW
Okean 1-7 4.3 04:54:23 10° N 04:58:27 43° E 05:02:29 10° SSE
GPS 2-04 Rocket1 3.5 04:55:58 10° W 04:59:48 36° SSW 05:03:44 10° SE
Meteosat 1 Rocket2 3.7 04:56:20 10° WSW 04:59:50 30° S 05:03:03 10° ESE
Meteor 2-10 Rocket 3.8 05:00:49 10° NNW 05:05:33 44° W 05:10:19 10° SSW
Cosmos 1867 3.6 05:03:03 10° SSW 05:08:28 77° WNW 05:13:57 10° NNE
Abrixas rocket 3.6 05:05:31 10° SSW 05:08:29 32° SE 05:11:29 10° ENE
